N42DM KBUR-KTRM

Flight info

Callsign N42DM
Flight time 1h 7m
Altitude 8500
Route POM HDF 54CL
Aircraft DR40/L-VGD/C

Departure

Time 2026-05-07 23:44
Airport Hollywood Burbank/Bob Hope Airport (KBUR)

Arrival

Time 2026-05-08 00:51
Airport Jacqueline Cochran Regional Airport (KTRM)
Time Latitude Longitude Altitude Speed Heading
2026-05-07 23:10 34.20132 -118.35926 740 ft 0 kts 257°
2026-05-07 23:31 34.20131 -118.35926 740 ft 0 kts 256°
2026-05-07 23:31 34.20130 -118.35929 740 ft 0 kts 244°
2026-05-07 23:31 34.20122 -118.35937 739 ft 2 kts 197°
2026-05-07 23:32 34.20099 -118.35935 739 ft 4 kts 172°
2026-05-07 23:32 34.20067 -118.35925 737 ft 5 kts 160°
2026-05-07 23:32 34.20028 -118.35913 735 ft 6 kts 168°
2026-05-07 23:32 34.19985 -118.35901 733 ft 6 kts 161°
2026-05-07 23:33 34.19958 -118.35857 731 ft 6 kts 115°
2026-05-07 23:33 34.19973 -118.35818 731 ft 4 kts 11°
2026-05-07 23:33 34.19997 -118.35820 732 ft 2 kts 347°
2026-05-07 23:33 34.20030 -118.35828 734 ft 7 kts 348°
2026-05-07 23:34 34.20074 -118.35841 736 ft 5 kts 347°
2026-05-07 23:34 34.20106 -118.35850 737 ft 4 kts 349°
2026-05-07 23:34 34.20158 -118.35864 740 ft 7 kts 348°
2026-05-07 23:34 34.20209 -118.35878 742 ft 7 kts 347°
2026-05-07 23:35 34.20258 -118.35890 744 ft 7 kts 348°
2026-05-07 23:35 34.20321 -118.35911 747 ft 10 kts 347°
2026-05-07 23:35 34.20392 -118.35930 750 ft 10 kts 347°
2026-05-07 23:35 34.20463 -118.35949 754 ft 10 kts 346°
2026-05-07 23:36 34.20528 -118.35967 758 ft 9 kts 348°
2026-05-07 23:36 34.20592 -118.35984 761 ft 9 kts 348°
2026-05-07 23:36 34.20663 -118.36003 765 ft 10 kts 346°
2026-05-07 23:36 34.20726 -118.36021 768 ft 8 kts 345°
2026-05-07 23:37 34.20781 -118.36037 771 ft 7 kts 347°
2026-05-07 23:37 34.20834 -118.36050 773 ft 7 kts 347°
2026-05-07 23:37 34.20883 -118.36064 775 ft 6 kts 346°
2026-05-07 23:37 34.20924 -118.36076 777 ft 4 kts 353°
2026-05-07 23:38 34.20942 -118.36070 778 ft 1 kts 41°
2026-05-07 23:38 34.20945 -118.36066 778 ft 0 kts 54°
2026-05-07 23:39 34.20945 -118.36065 778 ft 0 kts 56°
2026-05-07 23:39 34.20945 -118.36064 778 ft 0 kts 56°
2026-05-07 23:42 34.20949 -118.36056 778 ft 1 kts 68°
2026-05-07 23:43 34.20953 -118.36034 778 ft 5 kts 78°
2026-05-07 23:43 34.20927 -118.35967 775 ft 19 kts 153°
2026-05-07 23:43 34.20567 -118.35864 761 ft 81 kts 167°
2026-05-07 23:43 34.19979 -118.35716 1012 ft 82 kts 169°
2026-05-07 23:44 34.19407 -118.35603 1291 ft 82 kts 184°
2026-05-07 23:44 34.18923 -118.35892 1552 ft 80 kts 218°
2026-05-07 23:44 34.18507 -118.36346 1791 ft 81 kts 223°
2026-05-07 23:44 34.18094 -118.36811 2040 ft 82 kts 223°
2026-05-07 23:45 34.17663 -118.37262 2292 ft 82 kts 223°
2026-05-07 23:45 34.17226 -118.37694 2547 ft 82 kts 223°
2026-05-07 23:45 34.16776 -118.38110 2801 ft 82 kts 222°
2026-05-07 23:45 34.16304 -118.38533 2993 ft 91 kts 223°
2026-05-07 23:46 34.15755 -118.39030 3012 ft 103 kts 224°
2026-05-07 23:46 34.15144 -118.39554 2994 ft 110 kts 220°
2026-05-07 23:46 34.14536 -118.40099 3008 ft 110 kts 221°
2026-05-07 23:46 34.13915 -118.40661 3007 ft 111 kts 222°
2026-05-07 23:47 34.13290 -118.41219 3005 ft 111 kts 216°
2026-05-07 23:47 34.12521 -118.41349 3004 ft 117 kts 169°
2026-05-07 23:47 34.11865 -118.40781 3005 ft 119 kts 124°
2026-05-07 23:47 34.11580 -118.39843 3011 ft 119 kts 104°
2026-05-07 23:48 34.11375 -118.38859 3001 ft 120 kts 101°
2026-05-07 23:48 34.11195 -118.37890 2999 ft 120 kts 101°
2026-05-07 23:48 34.11018 -118.36894 2997 ft 119 kts 101°
2026-05-07 23:48 34.10842 -118.35916 3000 ft 119 kts 102°
2026-05-07 23:49 34.10666 -118.34936 2988 ft 119 kts 102°
2026-05-07 23:49 34.10493 -118.33971 3002 ft 118 kts 101°
2026-05-07 23:49 34.10319 -118.33002 2998 ft 118 kts 101°
2026-05-07 23:49 34.10146 -118.32032 3000 ft 118 kts 101°
2026-05-07 23:50 34.09973 -118.31069 3002 ft 119 kts 101°
2026-05-07 23:50 34.09796 -118.30093 2998 ft 119 kts 101°
2026-05-07 23:50 34.09650 -118.29112 3000 ft 119 kts 90°
2026-05-07 23:50 34.09658 -118.28119 3043 ft 119 kts 85°
2026-05-07 23:51 34.09673 -118.27159 3324 ft 110 kts 85°
2026-05-07 23:51 34.09678 -118.26286 3669 ft 100 kts 85°
2026-05-07 23:51 34.09674 -118.25459 3970 ft 98 kts 85°
2026-05-07 23:51 34.09671 -118.24640 4262 ft 97 kts 85°
2026-05-07 23:52 34.09670 -118.23828 4553 ft 97 kts 84°
2026-05-07 23:52 34.09668 -118.23019 4822 ft 98 kts 84°
2026-05-07 23:52 34.09662 -118.22190 5101 ft 99 kts 87°
2026-05-07 23:52 34.09657 -118.21367 5388 ft 99 kts 85°
2026-05-07 23:53 34.09660 -118.20538 5666 ft 99 kts 85°
2026-05-07 23:53 34.09663 -118.19706 5943 ft 100 kts 84°
2026-05-07 23:53 34.09667 -118.18861 6227 ft 101 kts 85°
2026-05-07 23:53 34.09671 -118.18018 6513 ft 101 kts 85°
2026-05-07 23:54 34.09664 -118.17191 6800 ft 99 kts 87°
2026-05-07 23:54 34.09668 -118.16360 7092 ft 98 kts 86°
2026-05-07 23:54 34.09672 -118.15548 7369 ft 98 kts 86°
2026-05-07 23:54 34.09669 -118.14732 7637 ft 98 kts 86°
2026-05-07 23:55 34.09653 -118.13917 7913 ft 97 kts 89°
2026-05-07 23:55 34.09607 -118.13120 8181 ft 96 kts 90°
2026-05-07 23:55 34.09561 -118.12317 8448 ft 95 kts 88°
2026-05-07 23:55 34.09518 -118.11532 8713 ft 95 kts 89°
2026-05-07 23:56 34.09476 -118.10744 8971 ft 94 kts 88°
2026-05-07 23:56 34.09436 -118.09957 9222 ft 93 kts 87°
2026-05-07 23:56 34.09396 -118.09187 9461 ft 94 kts 87°
2026-05-07 23:56 34.09356 -118.08337 9520 ft 108 kts 89°
2026-05-07 23:57 34.09317 -118.07383 9521 ft 116 kts 86°
2026-05-07 23:57 34.09269 -118.06387 9518 ft 121 kts 88°
2026-05-07 23:57 34.09218 -118.05369 9513 ft 123 kts 88°
2026-05-07 23:57 34.09163 -118.04337 9507 ft 121 kts 88°
2026-05-07 23:58 34.09111 -118.03324 9509 ft 119 kts 88°
2026-05-07 23:58 34.09060 -118.02348 9511 ft 117 kts 88°
2026-05-07 23:58 34.09011 -118.01372 9522 ft 116 kts 88°
2026-05-07 23:58 34.08960 -118.00395 9513 ft 116 kts 88°
2026-05-07 23:59 34.08913 -117.99444 9536 ft 113 kts 88°
2026-05-07 23:59 34.08864 -117.98492 9542 ft 113 kts 87°
2026-05-07 23:59 34.08817 -117.97536 9539 ft 114 kts 88°
2026-05-07 23:59 34.08768 -117.96575 9538 ft 115 kts 88°
2026-05-08 00:00 34.08721 -117.95617 9537 ft 115 kts 88°
2026-05-08 00:00 34.08670 -117.94656 9538 ft 115 kts 87°
2026-05-08 00:00 34.08586 -117.93681 9533 ft 118 kts 101°
2026-05-08 00:00 34.08281 -117.92770 9539 ft 119 kts 107°
2026-05-08 00:01 34.07932 -117.91858 9540 ft 120 kts 109°
2026-05-08 00:01 34.07570 -117.90947 9545 ft 120 kts 109°
2026-05-08 00:01 34.07268 -117.90023 9535 ft 116 kts 90°
2026-05-08 00:01 34.07265 -117.89066 9545 ft 113 kts 81°
2026-05-08 00:02 34.07297 -117.88126 9548 ft 113 kts 81°
2026-05-08 00:02 34.07331 -117.87171 9545 ft 113 kts 81°
2026-05-08 00:02 34.07363 -117.86224 9541 ft 114 kts 81°
2026-05-08 00:02 34.07397 -117.85265 9543 ft 113 kts 81°
2026-05-08 00:03 34.07428 -117.84320 9550 ft 113 kts 81°
2026-05-08 00:03 34.07456 -117.83373 9547 ft 114 kts 81°
2026-05-08 00:03 34.07493 -117.82410 9549 ft 115 kts 81°
2026-05-08 00:03 34.07527 -117.81445 9547 ft 115 kts 82°
2026-05-08 00:04 34.07562 -117.80475 9542 ft 115 kts 81°
2026-05-08 00:04 34.07596 -117.79507 9536 ft 115 kts 81°
2026-05-08 00:04 34.07631 -117.78541 9537 ft 116 kts 82°
2026-05-08 00:04 34.07668 -117.77566 9539 ft 116 kts 82°
2026-05-08 00:05 34.07705 -117.76598 9526 ft 117 kts 81°
2026-05-08 00:05 34.07742 -117.75630 9548 ft 115 kts 81°
2026-05-08 00:05 34.07773 -117.74651 9545 ft 115 kts 81°
2026-05-08 00:05 34.07805 -117.73695 9540 ft 115 kts 81°
2026-05-08 00:06 34.07834 -117.72726 9541 ft 115 kts 81°
2026-05-08 00:06 34.07576 -117.71802 9543 ft 123 kts 124°
2026-05-08 00:06 34.06901 -117.71137 9549 ft 125 kts 140°
2026-05-08 00:06 34.06175 -117.70541 9550 ft 126 kts 141°
2026-05-08 00:07 34.05444 -117.69951 9549 ft 126 kts 141°
2026-05-08 00:07 34.04716 -117.69362 9545 ft 127 kts 141°
2026-05-08 00:07 34.03981 -117.68767 9545 ft 127 kts 141°
2026-05-08 00:07 34.03242 -117.68169 9541 ft 127 kts 141°
2026-05-08 00:08 34.02508 -117.67573 9532 ft 127 kts 141°
2026-05-08 00:08 34.01771 -117.66984 9527 ft 127 kts 143°
2026-05-08 00:08 34.01029 -117.66396 9525 ft 127 kts 143°
2026-05-08 00:08 34.00293 -117.65813 9522 ft 126 kts 143°
2026-05-08 00:09 33.99565 -117.65238 9525 ft 126 kts 142°
2026-05-08 00:09 33.98828 -117.64653 9529 ft 126 kts 143°
2026-05-08 00:09 33.98093 -117.64069 9530 ft 126 kts 142°
2026-05-08 00:09 33.97401 -117.63433 9532 ft 125 kts 134°
2026-05-08 00:10 33.96780 -117.62701 9533 ft 124 kts 127°
2026-05-08 00:10 33.96224 -117.61908 9533 ft 123 kts 122°
2026-05-08 00:10 33.95721 -117.61088 9532 ft 122 kts 119°
2026-05-08 00:10 33.95248 -117.60232 9531 ft 122 kts 116°
2026-05-08 00:11 33.94804 -117.59365 9532 ft 121 kts 114°
2026-05-08 00:11 33.94377 -117.58482 9534 ft 121 kts 113°
2026-05-08 00:11 33.93969 -117.57602 9535 ft 122 kts 113°
2026-05-08 00:11 33.93563 -117.56696 9532 ft 122 kts 112°
2026-05-08 00:12 33.93172 -117.55803 9533 ft 121 kts 111°
2026-05-08 00:12 33.92778 -117.54890 9533 ft 121 kts 111°
2026-05-08 00:12 33.92392 -117.53989 9534 ft 121 kts 111°
2026-05-08 00:12 33.92007 -117.53075 9535 ft 122 kts 111°
2026-05-08 00:13 33.91622 -117.52160 9537 ft 122 kts 110°
2026-05-08 00:13 33.91244 -117.51257 9536 ft 122 kts 110°
2026-05-08 00:13 33.90863 -117.50346 9537 ft 121 kts 111°
2026-05-08 00:13 33.90482 -117.49430 9538 ft 121 kts 110°
2026-05-08 00:14 33.90109 -117.48530 9537 ft 121 kts 110°
2026-05-08 00:14 33.89727 -117.47611 9535 ft 121 kts 110°
2026-05-08 00:14 33.89352 -117.46705 9536 ft 121 kts 110°
2026-05-08 00:14 33.88978 -117.45802 9538 ft 121 kts 110°
2026-05-08 00:15 33.88602 -117.44895 9538 ft 121 kts 110°
2026-05-08 00:15 33.88227 -117.43993 9540 ft 121 kts 110°
2026-05-08 00:15 33.87852 -117.43087 9542 ft 121 kts 110°
2026-05-08 00:15 33.87473 -117.42176 9542 ft 121 kts 110°
2026-05-08 00:16 33.87101 -117.41280 9541 ft 121 kts 110°
2026-05-08 00:16 33.86725 -117.40371 9544 ft 120 kts 109°
2026-05-08 00:16 33.86351 -117.39467 9542 ft 120 kts 109°
2026-05-08 00:16 33.85979 -117.38571 9542 ft 120 kts 109°
2026-05-08 00:17 33.85604 -117.37665 9544 ft 120 kts 109°
2026-05-08 00:17 33.85232 -117.36769 9546 ft 120 kts 109°
2026-05-08 00:17 33.84857 -117.35861 9546 ft 120 kts 109°
2026-05-08 00:17 33.84485 -117.34966 9548 ft 120 kts 110°
2026-05-08 00:18 33.84106 -117.34054 9550 ft 121 kts 111°
2026-05-08 00:18 33.83734 -117.33158 9550 ft 121 kts 110°
2026-05-08 00:18 33.83353 -117.32241 9552 ft 121 kts 110°
2026-05-08 00:18 33.82978 -117.31341 9549 ft 122 kts 110°
2026-05-08 00:19 33.82595 -117.30418 9538 ft 122 kts 110°
2026-05-08 00:19 33.82218 -117.29507 9548 ft 121 kts 110°
2026-05-08 00:19 33.81844 -117.28601 9551 ft 121 kts 110°
2026-05-08 00:19 33.81465 -117.27693 9552 ft 121 kts 109°
2026-05-08 00:20 33.81092 -117.26795 9552 ft 121 kts 109°
2026-05-08 00:20 33.80714 -117.25888 9554 ft 121 kts 109°
2026-05-08 00:20 33.80342 -117.24989 9553 ft 121 kts 110°
2026-05-08 00:20 33.79962 -117.24076 9555 ft 121 kts 110°
2026-05-08 00:21 33.79582 -117.23163 9539 ft 121 kts 109°
2026-05-08 00:21 33.79210 -117.22267 9550 ft 121 kts 110°
2026-05-08 00:21 33.78831 -117.21358 9560 ft 120 kts 109°
2026-05-08 00:21 33.78454 -117.20454 9557 ft 121 kts 110°
2026-05-08 00:22 33.78078 -117.19553 9555 ft 121 kts 110°
2026-05-08 00:22 33.77690 -117.18642 9553 ft 123 kts 115°
2026-05-08 00:22 33.77183 -117.17810 9554 ft 124 kts 121°
2026-05-08 00:22 33.76646 -117.16985 9542 ft 125 kts 122°
2026-05-08 00:23 33.76111 -117.16171 9552 ft 124 kts 122°
2026-05-08 00:23 33.75575 -117.15352 9552 ft 124 kts 124°
2026-05-08 00:23 33.75039 -117.14548 9553 ft 124 kts 123°
2026-05-08 00:23 33.74497 -117.13734 9556 ft 124 kts 123°
2026-05-08 00:24 33.73961 -117.12922 9555 ft 124 kts 123°
2026-05-08 00:24 33.73421 -117.12102 9556 ft 124 kts 123°
2026-05-08 00:24 33.72884 -117.11284 9554 ft 124 kts 123°
2026-05-08 00:24 33.72347 -117.10472 9556 ft 124 kts 122°
2026-05-08 00:25 33.71817 -117.09662 9558 ft 124 kts 123°
2026-05-08 00:25 33.71285 -117.08849 9559 ft 124 kts 122°
2026-05-08 00:25 33.70749 -117.08033 9560 ft 124 kts 123°
2026-05-08 00:25 33.70214 -117.07214 9561 ft 124 kts 123°
2026-05-08 00:26 33.69672 -117.06390 9565 ft 124 kts 123°
2026-05-08 00:26 33.69140 -117.05580 9557 ft 125 kts 123°
2026-05-08 00:26 33.68597 -117.04754 9560 ft 125 kts 123°
2026-05-08 00:26 33.68060 -117.03933 9561 ft 124 kts 122°
2026-05-08 00:27 33.67529 -117.03123 9561 ft 124 kts 123°
2026-05-08 00:27 33.66993 -117.02308 9561 ft 125 kts 122°
2026-05-08 00:27 33.66452 -117.01481 9561 ft 125 kts 122°
2026-05-08 00:27 33.65911 -117.00658 9563 ft 125 kts 123°
2026-05-08 00:28 33.65371 -116.99833 9564 ft 126 kts 123°
2026-05-08 00:28 33.64828 -116.99007 9554 ft 126 kts 123°
2026-05-08 00:28 33.64285 -116.98182 9563 ft 125 kts 123°
2026-05-08 00:28 33.63741 -116.97356 9575 ft 125 kts 123°
2026-05-08 00:29 33.63201 -116.96536 9589 ft 126 kts 123°
2026-05-08 00:29 33.62655 -116.95705 9581 ft 127 kts 123°
2026-05-08 00:29 33.62110 -116.94876 9573 ft 126 kts 123°
2026-05-08 00:29 33.61570 -116.94057 9571 ft 125 kts 123°
2026-05-08 00:30 33.61027 -116.93231 9580 ft 125 kts 123°
2026-05-08 00:30 33.60490 -116.92416 9581 ft 124 kts 123°
2026-05-08 00:30 33.59957 -116.91606 9602 ft 125 kts 123°
2026-05-08 00:30 33.59412 -116.90778 9613 ft 126 kts 123°
2026-05-08 00:31 33.58863 -116.89947 9607 ft 127 kts 123°
2026-05-08 00:31 33.58317 -116.89118 9603 ft 127 kts 123°
2026-05-08 00:31 33.57771 -116.88291 9603 ft 126 kts 123°
2026-05-08 00:31 33.57224 -116.87463 9602 ft 126 kts 123°
2026-05-08 00:32 33.56676 -116.86633 9612 ft 126 kts 123°
2026-05-08 00:32 33.56137 -116.85812 9602 ft 126 kts 123°
2026-05-08 00:32 33.55594 -116.84988 9612 ft 125 kts 123°
2026-05-08 00:32 33.55049 -116.84165 9618 ft 125 kts 123°
2026-05-08 00:33 33.54504 -116.83340 9617 ft 126 kts 123°
2026-05-08 00:33 33.53963 -116.82520 9619 ft 126 kts 123°
2026-05-08 00:33 33.53419 -116.81696 9628 ft 126 kts 123°
2026-05-08 00:33 33.52880 -116.80880 9625 ft 126 kts 123°
2026-05-08 00:34 33.52356 -116.80036 9605 ft 123 kts 110°
2026-05-08 00:34 33.52271 -116.79080 9621 ft 114 kts 77°
2026-05-08 00:34 33.52394 -116.78135 9628 ft 114 kts 73°
2026-05-08 00:34 33.52537 -116.77213 9630 ft 114 kts 72°
2026-05-08 00:35 33.52687 -116.76273 9638 ft 114 kts 72°
2026-05-08 00:35 33.52837 -116.75342 9641 ft 115 kts 72°
2026-05-08 00:35 33.52992 -116.74400 9636 ft 115 kts 72°
2026-05-08 00:35 33.53146 -116.73452 9632 ft 115 kts 72°
2026-05-08 00:36 33.53300 -116.72510 9628 ft 115 kts 72°
2026-05-08 00:36 33.53458 -116.71571 9633 ft 114 kts 72°
2026-05-08 00:36 33.53613 -116.70639 9636 ft 115 kts 72°
2026-05-08 00:36 33.53770 -116.69704 9636 ft 115 kts 71°
2026-05-08 00:37 33.53928 -116.68764 9632 ft 114 kts 72°
2026-05-08 00:37 33.54084 -116.67836 9631 ft 115 kts 72°
2026-05-08 00:37 33.54240 -116.66897 9629 ft 114 kts 71°
2026-05-08 00:38 33.54557 -116.65021 9620 ft 114 kts 71°
2026-05-08 00:38 33.54712 -116.64084 9625 ft 114 kts 71°
2026-05-08 00:38 33.54872 -116.63150 9625 ft 114 kts 71°
2026-05-08 00:38 33.55028 -116.62222 9598 ft 116 kts 71°
2026-05-08 00:39 33.55195 -116.61239 9504 ft 123 kts 71°
2026-05-08 00:39 33.55368 -116.60212 9359 ft 128 kts 72°
2026-05-08 00:39 33.55544 -116.59145 9176 ft 133 kts 73°
2026-05-08 00:39 33.55724 -116.58055 9046 ft 133 kts 72°
2026-05-08 00:40 33.55904 -116.56956 8879 ft 134 kts 73°
2026-05-08 00:40 33.56083 -116.55853 8647 ft 136 kts 73°
2026-05-08 00:40 33.56269 -116.54733 8416 ft 137 kts 73°
2026-05-08 00:40 33.56453 -116.53625 8189 ft 137 kts 73°
2026-05-08 00:41 33.56639 -116.52497 7954 ft 137 kts 73°
2026-05-08 00:41 33.56826 -116.51379 7713 ft 137 kts 74°
2026-05-08 00:41 33.57002 -116.50302 7462 ft 130 kts 73°
2026-05-08 00:41 33.57174 -116.49256 7211 ft 126 kts 73°
2026-05-08 00:42 33.57345 -116.48242 6962 ft 124 kts 73°
2026-05-08 00:42 33.57515 -116.47234 6732 ft 123 kts 73°
2026-05-08 00:42 33.57683 -116.46227 6490 ft 123 kts 73°
2026-05-08 00:42 33.57845 -116.45235 6260 ft 122 kts 72°
2026-05-08 00:43 33.58111 -116.44282 6033 ft 119 kts 60°
2026-05-08 00:43 33.58453 -116.43389 5767 ft 119 kts 59°
2026-05-08 00:43 33.58810 -116.42497 5511 ft 118 kts 57°
2026-05-08 00:43 33.59230 -116.41650 5251 ft 118 kts 54°
2026-05-08 00:44 33.59656 -116.40829 4999 ft 117 kts 53°
2026-05-08 00:44 33.60091 -116.39997 4763 ft 117 kts 53°
2026-05-08 00:44 33.60525 -116.39177 4533 ft 116 kts 53°
2026-05-08 00:44 33.60947 -116.38361 4315 ft 116 kts 53°
2026-05-08 00:45 33.61379 -116.37543 4084 ft 117 kts 53°
2026-05-08 00:45 33.61830 -116.36702 3754 ft 123 kts 54°
2026-05-08 00:45 33.62300 -116.35825 3410 ft 125 kts 54°
2026-05-08 00:45 33.62772 -116.34963 3074 ft 125 kts 54°
2026-05-08 00:46 33.63256 -116.34085 2719 ft 126 kts 54°
2026-05-08 00:46 33.63716 -116.33227 2456 ft 119 kts 54°
2026-05-08 00:46 33.64140 -116.32430 2334 ft 106 kts 54°
2026-05-08 00:46 33.64529 -116.31695 2297 ft 106 kts 53°
2026-05-08 00:47 33.64930 -116.30940 2300 ft 108 kts 52°
2026-05-08 00:47 33.65329 -116.30158 2310 ft 110 kts 54°
2026-05-08 00:47 33.65737 -116.29375 2321 ft 109 kts 53°
2026-05-08 00:47 33.66048 -116.28552 2330 ft 109 kts 68°
2026-05-08 00:48 33.66236 -116.27657 2325 ft 110 kts 77°
2026-05-08 00:48 33.66267 -116.26737 2316 ft 111 kts 92°
2026-05-08 00:48 33.66112 -116.25827 2309 ft 112 kts 98°
2026-05-08 00:48 33.65924 -116.24902 2275 ft 115 kts 99°
2026-05-08 00:49 33.65713 -116.23998 2301 ft 113 kts 107°
2026-05-08 00:49 33.65426 -116.23114 2302 ft 113 kts 108°
2026-05-08 00:49 33.65138 -116.22231 2304 ft 113 kts 108°
2026-05-08 00:49 33.64876 -116.21449 2233 ft 93 kts 109°
2026-05-08 00:50 33.64616 -116.20714 1958 ft 97 kts 109°
2026-05-08 00:50 33.64362 -116.19962 1658 ft 95 kts 107°
2026-05-08 00:50 33.64146 -116.19241 1339 ft 91 kts 106°
2026-05-08 00:50 33.63876 -116.18540 955 ft 96 kts 116°
2026-05-08 00:51 33.63504 -116.17841 469 ft 104 kts 121°
2026-05-08 00:51 33.63075 -116.17180 56 ft 96 kts 134°
2026-05-08 00:51 33.62676 -116.16682 -42 ft 59 kts 132°
2026-05-08 00:51 33.62542 -116.16518 -43 ft 15 kts 95°
2026-05-08 00:52 33.62589 -116.16474 -43 ft 7 kts 320°
2026-05-08 00:52 33.62633 -116.16522 -42 ft 9 kts 312°
2026-05-08 00:52 33.62683 -116.16585 -42 ft 11 kts 315°
2026-05-08 00:52 33.62736 -116.16653 -43 ft 10 kts 315°
2026-05-08 00:53 33.62784 -116.16708 -42 ft 8 kts 316°
2026-05-08 00:53 33.62820 -116.16751 -41 ft 6 kts 329°
2026-05-08 00:53 33.62851 -116.16784 -40 ft 5 kts 317°
2026-05-08 00:53 33.62886 -116.16826 -40 ft 7 kts 315°
2026-05-08 00:54 33.62928 -116.16876 -40 ft 8 kts 316°
2026-05-08 00:54 33.62974 -116.16931 -40 ft 9 kts 314°
2026-05-08 00:54 33.63019 -116.16987 -39 ft 8 kts 314°
2026-05-08 00:54 33.63056 -116.17029 -39 ft 6 kts 319°
2026-05-08 00:55 33.63100 -116.17072 -38 ft 9 kts 329°
2026-05-08 00:55 33.63165 -116.17088 -37 ft 10 kts 358°
2026-05-08 00:55 33.63241 -116.17088 -35 ft 10 kts
2026-05-08 00:55 33.63317 -116.17088 -35 ft 11 kts 358°
2026-05-08 00:56 33.63379 -116.17090 -35 ft 6 kts 358°
2026-05-08 00:56 33.63414 -116.17065 -36 ft 7 kts 86°
2026-05-08 00:56 33.63413 -116.16987 -37 ft 10 kts 90°
2026-05-08 00:56 33.63414 -116.16897 -37 ft 11 kts 88°
2026-05-08 00:57 33.63418 -116.16813 -37 ft 9 kts 50°
2026-05-08 00:57 33.63467 -116.16817 -37 ft 5 kts
2026-05-08 00:57 33.63468 -116.16799 -37 ft 0 kts 182°